Flag for Canada Weather past 2 weeks in Rankin Inlet, Nunavut Territory, Canada

Now
9 °F

Passing clouds.


Feels Like: -11 °F
Forecast: -11 / 7 °F
Wind: 21 mph from Northwest

Location: Rankin Inlet


UV Index: 0 (Low)

Visibility: 15 mi


Pressure: 29.74 "Hg

Humidity: 78%

Dew point: 3 °F

Location of Rankin InletLocation

Historic Weather in Rankin Inlet

°F

Rankin Inlet temperature yesterday

Maximum temperature yesterday: 12 °F (at 4:00 PM)
Minimum temperature yesterday: -6 °F (at 12:00 AM)
Average temperature yesterday: 4 °F

Past Weeks' High & Low Weather Summary

 TemperatureHumidityPressure
High16 °F (Apr 5, 2:00 PM)85% (Apr 5, 7:45 AM)30.27 "Hg (Apr 5, 7:45 AM)
Low-24 °F (Apr 3, 5:00 AM)59% (Apr 4, 9:00 PM)29.48 "Hg (Apr 11, 3:00 AM)
Average-7 °F74%29.88 "Hg
* Reported Midnight between Apr 1 and Apr 2 — Midnight between Apr 16 and Apr 17, Rankin Inlet, Weather by CustomWeather, © 2014

Note: Actual official high and low records may vary slightly from our data, if they occured in-between our weather recording intervals... More about our weather records

Advertising

Historic Weather Conditions — Data for Previous 24 hours

 ConditionsComfort  
Time TempWeatherWind HumidityBarometerVisibility
12:00 AM
Apr 17
9 °FPassing clouds.21 mph78%29.75 "Hg15 mi
11:00 PM
Apr 16
7 °FPassing clouds.14 mph78%29.79 "Hg15 mi
10:00 PM7 °FPassing clouds.18 mph78%29.81 "Hg15 mi
9:00 PM7 °FPassing clouds.15 mph78%29.84 "Hg15 mi
8:00 PM9 °FPartly sunny.10 mph78%29.87 "Hg15 mi
7:00 PM9 °FOvercast.14 mph78%29.90 "Hg15 mi
6:00 PM10 °FOvercast.18 mph79%29.91 "Hg15 mi
5:00 PM10 °FOvercast.22 mph72%29.93 "Hg15 mi
4:00 PM12 °FPartly sunny.17 mph67%29.96 "Hg15 mi
3:00 PM10 °FPartly sunny.20 mph67%29.97 "Hg15 mi
2:00 PM10 °FPartly sunny.21 mph67%29.99 "Hg15 mi
1:00 PM9 °FBroken clouds.18 mph72%30.01 "Hg15 mi
12:00 PM5 °FPartly sunny.16 mph72%30.03 "Hg15 mi
11:00 AM3 °FPartly sunny.20 mph72%30.05 "Hg15 mi
10:00 AM1 °FOvercast.21 mph71%30.07 "Hg15 mi
9:00 AM1 °FOvercast.28 mph71%30.06 "Hg15 mi
8:00 AM0 °FOvercast.24 mph71%30.09 "Hg15 mi
7:00 AM0 °FOvercast.28 mph71%30.09 "Hg12 mi
6:00 AM0 °FOvercast.25 mph71%30.11 "Hg15 mi
5:00 AM-2 °FOvercast.28 mph77%30.11 "Hg15 mi
4:00 AM-2 °FHigh level clouds.22 mph77%30.14 "Hg15 mi
3:00 AM-2 °FPassing clouds.23 mph71%30.15 "Hg15 mi
2:00 AM-4 °FPassing clouds.20 mph77%30.17 "Hg15 mi
1:00 AM-4 °FPassing clouds.14 mph77%30.19 "Hg15 mi
Weather by CustomWeather, © 2014

See weather overview